Weather reports worldwide

Advertisment
Shawbury, United Kingdom (3414): temperature & dewpoint: 06.12.2019 10:00:00 - 12.12.2019 10:00:00 (GMT)Shawbury, United Kingdom (3414): temperature -20cm & temperature -100cm: 06.12.2019 10:00:00 - 12.12.2019 10:00:00 (GMT)Shawbury, United Kingdom (3414): wind speed & gusts: 06.12.2019 10:00:00 - 12.12.2019 10:00:00 (GMT)Shawbury, United Kingdom (3414): wind direction: 06.12.2019 10:00:00 - 12.12.2019 10:00:00 (GMT)Shawbury, United Kingdom (3414): reduced air pressure: 06.12.2019 10:00:00 - 12.12.2019 10:00:00 (GMT)Shawbury, United Kingdom (3414): visibility: 06.12.2019 10:00:00 - 12.12.2019 10:00:00 (GMT)Shawbury, United Kingdom (3414): sunshine duration: 06.12.2019 10:00:00 - 12.12.2019 10:00:00 (GMT)Shawbury, United Kingdom (3414): precipitation: 06.12.2019 10:00:00 - 12.12.2019 10:00:00 (GMT)
Date & Time tt [°C] td [°C] tt -20cm [°C] tt -100cm [°C] ff [km/h] ff [kn] fx [km/h] fx [kn] dd ppp [hPa] vv [km] sd [min] rr [mm]
12.12.2019 10:00:00 4,2 3,4 - - 16 9 - - SE 986,5 10 0 0,8
12.12.2019 09:00:00 3,8 2,5 6,7 8,2 22 12 - - SE 988,5 10 0 0,0
12.12.2019 08:00:00 3,5 2,3 - - 16 9 - - SE 990,1 20 0 0,2
12.12.2019 07:00:00 2,8 1,4 - - 13 7 - - SSE 992,2 10 0 0,0
12.12.2019 06:00:00 2,8 0,8 - - 16 9 - - SSE 993,8 29 0 0,0
12.12.2019 05:00:00 2,3 0,6 - - 11 6 - - SE 995,4 30 0 0,0
12.12.2019 04:00:00 2,2 0,3 - - 13 7 - - SSE 996,8 27 0 0,0
12.12.2019 03:00:00 1,4 -0,3 - - 8 4 - - SSW 998,2 10 0 0,0
12.12.2019 02:00:00 1,4 0,0 - - 5 3 - - SSE 999,3 28 0 0,0
12.12.2019 01:00:00 1,6 0,0 - - 8 4 - - S 1000,0 28 0 0,0
12.12.2019 00:00:00 0,6 -1,0 - - 8 4 - - SW 1000,9 30 - 0,0
11.12.2019 23:00:00 2,4 0,8 - - 11 6 - - SW 1001,3 30 0 0,0
11.12.2019 22:00:00 1,4 0,2 - - 9 5 - - SW 1001,4 30 0 0,0
11.12.2019 21:00:00 0,0 -1,0 - - 9 5 - - SW 1001,7 10 0 0,0
11.12.2019 20:00:00 0,7 -0,2 - - 11 6 - - WSW 1001,5 22 0 0,0
11.12.2019 19:00:00 1,3 0,4 - - 15 8 - - WSW 1001,5 26 0 0,0
11.12.2019 18:00:00 2,5 1,5 - - 18 10 - - W 1000,9 30 0 0,0
11.12.2019 17:00:00 1,7 0,7 - - 5 3 - - WSW 1000,5 10 0 0,0
11.12.2019 16:00:00 3,4 1,7 - - 8 4 - - WSW 999,7 10 36 0,0
11.12.2019 15:00:00 4,7 2,8 - - 13 7 - - SW 999,4 10 24 0,0
11.12.2019 14:00:00 4,5 2,7 - - 16 9 - - SSW 999,3 40 0 0,2
11.12.2019 13:00:00 4,8 3,3 - - 18 10 - - SW 999,6 25 0 0,4
11.12.2019 12:00:00 5,3 2,9 - - 15 8 - - S 1000,0 10 0 0,2
11.12.2019 11:00:00 5,1 2,8 - - 18 10 - - SSE 1000,9 10 12 0,0
11.12.2019 10:00:00 4,5 2,3 - - 16 9 - - S 1001,7 10 24 0,0
11.12.2019 09:00:00 4,5 1,7 7,2 8,4 11 6 - - S 1002,3 10 0 0,0
11.12.2019 08:00:00 4,7 1,8 - - 15 8 - - SSW 1002,3 10 0 0,0
11.12.2019 07:00:00 4,4 1,6 - - 5 3 - - SW 1003,2 10 0 0,0
11.12.2019 06:00:00 4,3 1,7 - - 13 7 - - S 1003,8 10 0 0,0
11.12.2019 05:00:00 4,7 2,0 - - 16 9 - - S 1004,6 23 0 0,0
11.12.2019 04:00:00 5,2 2,3 - - 21 11 - - S 1005,1 23 0 0,0
11.12.2019 03:00:00 4,9 1,7 - - 18 10 - - S 1005,8 22 0 0,0
11.12.2019 02:00:00 4,2 1,6 - - 18 10 - - SSW 1005,5 21 0 0,0
11.12.2019 01:00:00 5,1 2,0 - - 5 3 - - SSE 1005,7 21 0 0,0
11.12.2019 00:00:00 5,3 2,4 - - 18 10 - - SW 1004,9 23 - 0,0
10.12.2019 23:00:00 5,9 2,4 - - 26 14 - - WSW 1004,4 10 0 0,0
10.12.2019 22:00:00 6,3 2,6 - - 29 16 - - WSW 1003,5 10 0 0,0
10.12.2019 21:00:00 7,0 3,6 - - 18 10 - - WSW 1002,9 29 0 0,0
10.12.2019 20:00:00 6,0 3,9 - - 24 13 52 28 W 1002,0 35 0 0,6
10.12.2019 19:00:00 8,2 5,5 - - 31 17 54 29 WSW 1000,1 35 0 0,2
10.12.2019 18:00:00 8,6 6,3 - - 22 12 67 36 W 998,6 19 0 2,0
10.12.2019 17:00:00 12,7 10,9 - - 44 24 59 32 SSW 995,0 10 0 1,2
10.12.2019 16:00:00 12,6 11,0 - - 29 16 - - S 995,6 10 0 0,0
10.12.2019 15:00:00 11,4 10,2 - - 34 18 55 30 S 997,1 10 0 0,0
10.12.2019 14:00:00 11,1 9,6 - - 41 22 57 31 S 998,7 10 0 0,0
10.12.2019 13:00:00 10,6 8,9 - - 29 16 46 25 S 1000,7 10 0 0,0
10.12.2019 12:00:00 10,1 8,2 - - 29 16 - - S 1003,2 10 0 0,0
10.12.2019 11:00:00 9,6 7,4 - - 34 18 48 26 S 1005,6 10 0 0,0
10.12.2019 10:00:00 8,6 6,5 - - 29 16 48 26 S 1007,5 10 0 0,0
10.12.2019 09:00:00 7,5 5,4 7,0 8,4 21 11 - - S 1009,4 10 0 0,0
10.12.2019 08:00:00 6,9 4,6 - - 28 15 - - SSE 1010,5 20 0 0,0
10.12.2019 07:00:00 6,3 4,0 - - 31 17 - - S 1012,2 10 0 0,0
10.12.2019 06:00:00 5,7 3,1 - - 31 17 - - S 1014,3 20 0 0,0
10.12.2019 05:00:00 5,1 2,7 - - 18 10 - - S 1016,0 20 0 0,0
10.12.2019 04:00:00 3,3 1,6 - - 16 9 - - SSE 1017,2 18 0 0,0
10.12.2019 03:00:00 2,7 0,6 - - 15 8 - - SSE 1019,5 18 0 0,0
10.12.2019 02:00:00 3,1 1,3 - - 21 11 - - S 1020,3 19 0 0,2
10.12.2019 01:00:00 2,8 1,1 - - 15 8 - - S 1021,4 19 0 0,0
10.12.2019 00:00:00 -0,6 -2,0 - - 2 1 - - SE 1022,4 13 - 0,0
09.12.2019 23:00:00 0,7 -0,5 - - 9 5 - - SW 1023,0 17 0 0,0
09.12.2019 22:00:00 1,8 0,5 - - 8 4 - - WSW 1023,3 19 0 0,0
09.12.2019 21:00:00 1,4 -0,2 - - 9 5 - - SW 1023,3 18 0 0,0
09.12.2019 20:00:00 1,3 -0,7 - - 11 6 - - SW 1023,2 15 0 0,0
09.12.2019 19:00:00 2,6 1,0 - - 11 6 - - WSW 1022,4 20 0 0,0
09.12.2019 18:00:00 3,1 0,7 - - 11 6 - - W 1022,0 15 0 0,0
09.12.2019 17:00:00 5,2 2,1 - - 15 8 - - WNW 1021,2 10 0 0,0
09.12.2019 16:00:00 6,4 0,6 - - 15 8 - - NW 1020,2 10 18 0,0
09.12.2019 15:00:00 7,3 1,3 - - 18 10 - - NW 1018,9 30 54 0,0
09.12.2019 14:00:00 7,4 2,1 - - 18 10 - - WNW 1018,2 30 30 0,0
09.12.2019 13:00:00 7,6 1,5 - - 28 15 48 26 NW 1016,7 30 48 0,0
09.12.2019 12:00:00 7,8 1,3 - - 35 19 59 32 NNW 1015,1 10 60 0,0
09.12.2019 11:00:00 8,1 0,8 - - 35 19 57 31 NNW 1013,4 30 60 0,0
09.12.2019 10:00:00 7,8 1,3 - - 28 15 54 29 NW 1011,5 10 30 0,0
09.12.2019 09:00:00 7,4 1,6 7,7 8,4 31 17 52 28 NNW 1009,3 10 0 0,0
09.12.2019 08:00:00 7,4 2,9 - - 29 16 52 28 NW 1006,6 10 0 0,0
09.12.2019 07:00:00 7,2 3,3 - - 29 16 52 28 NW 1004,2 10 0 0,0
09.12.2019 06:00:00 7,8 3,8 - - 35 19 57 31 NW 1001,1 10 0 0,0
09.12.2019 05:00:00 8,3 4,4 - - 31 17 68 37 NW 997,9 23 0 0,0
09.12.2019 04:00:00 7,9 4,7 - - 37 20 59 32 NW 995,0 21 0 0,0
09.12.2019 03:00:00 6,9 5,5 - - 21 11 - - WNW 991,5 13 0 0,2
09.12.2019 02:00:00 5,9 4,7 - - 5 3 - - WSW 988,9 10 0 1,0
09.12.2019 01:00:00 6,4 4,3 - - 26 14 - - WSW 988,8 8 0 0,2
09.12.2019 00:00:00 6,4 4,0 - - 22 12 - - WSW 988,6 27 - 0,0
08.12.2019 23:00:00 6,1 4,5 - - 18 10 - - SW 988,4 22 0 0,6
08.12.2019 22:00:00 5,8 4,1 - - 16 9 - - SSW 988,3 6 0 0,2
08.12.2019 21:00:00 5,6 3,6 - - 22 12 52 28 SSW 989,2 15 0 2,0
08.12.2019 20:00:00 6,4 2,4 - - 29 16 - - SW 990,1 16 0 0,0
08.12.2019 19:00:00 6,1 3,0 - - 28 15 48 26 SW 991,0 15 0 0,0
08.12.2019 18:00:00 6,2 2,3 - - 29 16 54 29 SW 992,1 17 0 0,0
08.12.2019 17:00:00 6,3 2,2 - - 34 18 67 36 WSW 992,6 10 0 0,0
08.12.2019 16:00:00 7,0 2,8 - - 37 20 59 32 WSW 993,3 9 6 0,0
08.12.2019 15:00:00 7,2 2,2 - - 37 20 68 37 WSW 993,3 17 42 0,0
08.12.2019 14:00:00 7,3 3,0 - - 37 20 63 34 WSW 994,2 17 30 0,0
08.12.2019 13:00:00 7,9 2,5 - - 41 22 61 33 SW 994,6 16 30 0,0
08.12.2019 12:00:00 7,3 2,9 - - 48 26 68 37 WSW 995,7 10 30 0,2
08.12.2019 11:00:00 7,2 3,0 - - 44 24 63 34 WSW 996,6 17 18 0,0
08.12.2019 10:00:00 8,3 3,3 - - 37 20 59 32 WSW 996,5 17 36 0,0
08.12.2019 09:00:00 7,5 3,6 8,0 8,2 41 22 61 33 WSW 996,2 19 0 0,0
08.12.2019 08:00:00 7,4 3,9 - - 29 16 - - WSW 996,4 15 0 0,0
08.12.2019 07:00:00 7,6 4,6 - - 22 12 - - SW 996,7 17 0 0,0
08.12.2019 06:00:00 7,7 3,8 - - 24 13 46 25 W 996,6 24 0 0,4
08.12.2019 05:00:00 9,7 5,0 - - 26 14 - - WSW 995,4 18 0 0,0
08.12.2019 04:00:00 10,2 6,8 - - 28 15 55 30 WSW 995,1 10 0 0,0
08.12.2019 03:00:00 12,3 9,7 - - 24 13 50 27 W 994,4 26 0 0,2
08.12.2019 02:00:00 11,9 9,3 - - 31 17 48 26 SW 994,2 10 0 0,0
08.12.2019 01:00:00 10,9 9,0 - - 31 17 54 29 SSW 995,5 10 0 0,4
08.12.2019 00:00:00 9,7 8,4 - - 29 16 54 29 S 997,5 15 - 1,2
07.12.2019 23:00:00 10,2 7,5 - - 37 20 48 26 S 998,3 11 0 0,0
07.12.2019 22:00:00 10,3 7,2 - - 34 18 52 28 S 1000,6 24 0 0,0
07.12.2019 21:00:00 10,1 6,9 - - 37 20 52 28 SSW 1002,2 26 0 0,0
07.12.2019 20:00:00 10,0 7,1 - - 29 16 - - SSW 1004,7 24 0 0,0
07.12.2019 19:00:00 9,5 7,0 - - 22 12 - - S 1005,7 23 0 0,0
07.12.2019 18:00:00 9,5 7,4 - - 22 12 - - SSW 1007,1 20 0 0,0
07.12.2019 17:00:00 10,0 7,6 - - 22 12 - - SSW 1008,3 10 0 0,0
07.12.2019 16:00:00 10,0 7,0 - - 24 13 - - SW 1008,8 16 0 0,0
07.12.2019 15:00:00 9,9 6,5 - - 18 10 - - SSW 1009,2 18 0 0,0
07.12.2019 14:00:00 10,5 6,4 - - 22 12 - - SW 1009,9 18 6 0,0
07.12.2019 13:00:00 9,9 6,3 - - 26 14 - - WSW 1010,5 18 0 0,0
07.12.2019 12:00:00 9,8 6,0 - - 16 9 - - SW 1011,2 10 6 0,0
07.12.2019 11:00:00 9,0 5,7 - - 18 10 - - SSW 1012,2 17 0 0,0
07.12.2019 10:00:00 8,5 5,7 - - 11 6 - - SW 1012,4 17 6 0,0
07.12.2019 09:00:00 8,2 5,4 7,7 8,2 11 6 - - WSW 1012,2 10 0 0,0
07.12.2019 08:00:00 8,4 5,8 - - 13 7 - - SW 1012,2 15 0 0,0
07.12.2019 07:00:00 8,1 5,9 - - 9 5 - - SW 1011,8 15 0 0,0
07.12.2019 06:00:00 8,3 6,0 - - 8 4 - - WSW 1011,2 18 0 0,0
07.12.2019 05:00:00 8,3 5,8 - - 16 9 - - SW 1010,3 26 0 0,0
07.12.2019 04:00:00 8,4 5,9 - - 13 7 - - WSW 1010,2 29 0 0,0
07.12.2019 03:00:00 8,0 5,6 - - 9 5 - - WSW 1010,0 26 0 0,0
07.12.2019 02:00:00 8,6 5,7 - - 15 8 - - WSW 1009,5 10 0 0,0
07.12.2019 01:00:00 8,1 5,7 - - 15 8 - - W 1009,0 27 0 0,0
07.12.2019 00:00:00 7,2 5,0 - - 15 8 - - WSW 1008,2 25 - 0,0
06.12.2019 23:00:00 8,2 5,5 - - 9 5 - - WSW 1007,7 21 0 0,0
06.12.2019 22:00:00 8,7 5,6 - - 9 5 - - W 1006,9 10 0 0,0
06.12.2019 21:00:00 8,7 6,0 - - 13 7 - - WSW 1006,5 23 0 0,0
06.12.2019 20:00:00 8,8 6,3 - - 15 8 - - W 1005,5 10 0 0,0
06.12.2019 19:00:00 9,0 6,1 - - 16 9 - - W 1004,7 10 0 0,0
06.12.2019 18:00:00 9,1 6,1 - - 21 11 - - W 1003,2 29 0 0,0
06.12.2019 17:00:00 9,0 5,9 - - 22 12 - - W 1001,8 40 0 0,2
06.12.2019 16:00:00 9,6 6,7 - - 21 11 - - W 1000,5 10 0 0,2
06.12.2019 15:00:00 10,3 7,5 - - 21 11 - - W 999,1 10 0 0,0
06.12.2019 14:00:00 9,9 7,7 - - 16 9 - - WSW 998,6 10 0 1,2
06.12.2019 13:00:00 10,1 8,9 - - 24 13 46 25 W 999,0 10 0 0,6
06.12.2019 12:00:00 11,5 7,7 - - 31 17 57 31 WSW 999,5 8 24 0,0
06.12.2019 11:00:00 12,3 8,8 - - 35 19 55 30 WSW 999,8 10 0 0,0
06.12.2019 10:00:00 11,3 9,8 - - 11 6 - - SSW 1000,5 10 0 0,2

tt = temperature
td = dewpoint
tt -20cm = temperature -20cm
tt -100cm = temperature -100cm
ff = wind speed
fx = gusts
dd = wind direction
ppp = reduced air pressure
vv = visibility
sd = sunshine duration
rr = precipitation

Next stations